(92554) = 1991 DR1 = 2000 OK38

Discovered at Socorro on 2000-07-30 by LINEAR.

Orbit

Orbit type: Main Belt

Note: WebGL enabled browser required.

epoch2024-03-31.0
epoch JD2460400.5
perihelion date2022-12-28.88419
perihelion JD2459942.38419
argument of perihelion (°)144.54472
ascending node (°)221.28005
inclination (°)8.57275
eccentricity0.2867041
perihelion distance (AU)1.7012871
Tisserand w.r.t. Jupiter3.5
ΔV w.r.t. Earth (km/sec)8.5
semimajor axis (AU)2.3851072
mean anomaly (°)122.57934
mean daily motion (°/day)0.26757280
aphelion distance (AU)3.069
period (years)3.68
P-vector [x]0.99056124
P-vector [y]0.06318553
P-vector [z]0.12163891
Q-vector [x]-0.09548224
Q-vector [y]0.95476973
Q-vector [z]0.28159885
absolute magnitude15.84
phase slope0.15
uncertainty0
referenceMPEC 2024-E23
observations used960
oppositions19
arc length (days)12062
first opposition used1991
last opposition used2024
residual rms (arc-secs)0.62
perturbers coarse indicatorM-v
perturbers precise indicator003Ek
first observation date used1991-02-22.0
last observation date used2024-03-02.0
computer nameMPCLINUX
JD of orbit computation2456937.221642
perihelion JD uncertainty (days)5.2191E-05
argument of perihelion uncertainty (°)3.0929E-05
ascending node uncertainty (°)2.9014E-05
inclination uncertainty (°)5.3203E-06
eccentricity uncertainty 3.6582E-08
perihelion distance uncertainty (AU)8.9252E-08
Minimum Orbit Intersection Distances (in AU)
for orbit epoch: 2460400.5, reference: E2024-E23
Mercury1.3519
Venus0.98728
Earth0.70911
Mars0.30909
Jupiter2.42181
Saturn6.4454
Uranus15.4234
Neptune27.5396

Observations

985 total observations over interval: 1991 02 22.17708 – 2024 03 02.451000
These data are available for download (format description).

Date (UT) J2000 RA J2000 Dec Magn Location Ref
1991 02 22.17708 10 13 14.25 -01 42 44.0   304 – Las Campanas Observatory MPC 20459
1991 02 22.18542 10 13 13.80 -01 42 41.4   304 – Las Campanas Observatory MPC 20459
1991 02 22.25278 10 13 09.89 -01 42 15.8   304 – Las Campanas Observatory MPC 20459
2000 06 10.35583 21 11 11.42 -03 02 28.1 18.7   704 – Lincoln Laboratory ETS, New Mexico MPS 17878
2000 06 10.36836 21 11 11.85 -03 02 20.9 19.0   704 – Lincoln Laboratory ETS, New Mexico MPS 17878
2000 06 10.39336 21 11 12.65 -03 02 05.2 19.1   704 – Lincoln Laboratory ETS, New Mexico MPS 17878
2000 06 25.36061 21 16 48.95 -00 36 34.7 18.2   704 – Lincoln Laboratory ETS, New Mexico MPS 17878
2000 06 25.37285 21 16 49.06 -00 36 28.0 18.8   704 – Lincoln Laboratory ETS, New Mexico MPS 17878
2000 06 25.39730 21 16 49.22 -00 36 15.1 18.2   704 – Lincoln Laboratory ETS, New Mexico MPS 17878
2000 06 25.40977 21 16 49.31 -00 36 08.4 18.8   704 – Lincoln Laboratory ETS, New Mexico MPS 17878
2000 07 04.27678 21 17 07.14 +00 37 10.6 17.8 R 699 – Lowell Observatory-LONEOS MPS 17878
2000 07 04.29526 21 17 07.01 +00 37 19.1   699 – Lowell Observatory-LONEOS MPS 17878
2000 07 04.31361 21 17 06.89 +00 37 27.6   699 – Lowell Observatory-LONEOS MPS 17878
2000 07 04.33197 21 17 06.71 +00 37 35.8   699 – Lowell Observatory-LONEOS MPS 17878
2000 07 30.30300 21 05 08.50 +02 28 56.1 18.1   704 – Lincoln Laboratory ETS, New Mexico MPS 17878
2000 07 30.31653 21 05 07.86 +02 28 56.5 18.1   704 – Lincoln Laboratory ETS, New Mexico MPS 17878
2000 07 30.33013 21 05 07.14 +02 28 56.4 18.4   704 – Lincoln Laboratory ETS, New Mexico MPS 17878
2000 07 30.34361 21 05 06.50 +02 28 56.9 18.3   704 – Lincoln Laboratory ETS, New Mexico MPS 17878
2000 07 30.35814 21 05 05.78 +02 28 57.9 18.1   704 – Lincoln Laboratory ETS, New Mexico MPS 17878
2000 08 03.29516 21 02 01.84 +02 27 58.6 17.0   704 – Lincoln Laboratory ETS, New Mexico MPS 17878
2000 08 03.30935 21 02 01.13 +02 27 57.4 17.6   704 – Lincoln Laboratory ETS, New Mexico MPS 17878
2000 08 03.32358 21 02 00.38 +02 27 56.8 17.5   704 – Lincoln Laboratory ETS, New Mexico MPS 17878
2000 08 03.33779 21 01 59.65 +02 27 55.9 17.8   704 – Lincoln Laboratory ETS, New Mexico MPS 17878
2000 08 03.35327 21 01 58.86 +02 27 55.3 17.6   704 – Lincoln Laboratory ETS, New Mexico MPS 17878
2000 08 05.50878 21 00 14.91 +02 25 09.1 17.4 V 300 – Bisei Spaceguard Center-BATTeRS MPS 17878
2000 08 05.54060 21 00 13.32 +02 25 05.5 17.4 V 300 – Bisei Spaceguard Center-BATTeRS MPS 17878
2000 08 31.23869 20 42 11.84 +00 09 48.0 18.0   704 – Lincoln Laboratory ETS, New Mexico MPS 17878
2000 08 31.25194 20 42 11.45 +00 09 40.7 18.1   704 – Lincoln Laboratory ETS, New Mexico MPS 17878
2000 08 31.26518 20 42 11.05 +00 09 33.7 18.4   704 – Lincoln Laboratory ETS, New Mexico MPS 17878
2000 08 31.27840 20 42 10.67 +00 09 28.0 18.3   704 – Lincoln Laboratory ETS, New Mexico MPS 17878
2000 08 31.29167 20 42 10.32 +00 09 21.4 18.5   704 – Lincoln Laboratory ETS, New Mexico MPS 17878
2000 09 23.11280 20 42 29.25 -02 59 08.8 18.1   704 – Lincoln Laboratory ETS, New Mexico MPS 19177
2000 09 23.12778 20 42 29.67 -02 59 15.6 17.8   704 – Lincoln Laboratory ETS, New Mexico MPS 19177
2000 09 23.14306 20 42 30.01 -02 59 22.4 17.4   704 – Lincoln Laboratory ETS, New Mexico MPS 19177
2000 09 23.15797 20 42 30.36 -02 59 29.5 17.4   704 – Lincoln Laboratory ETS, New Mexico MPS 19177
2000 09 23.17251 20 42 30.73 -02 59 35.8 17.8   704 – Lincoln Laboratory ETS, New Mexico MPS 19177
2000 09 25.17637 20 43 32.41 -03 14 47.7 17.5   704 – Lincoln Laboratory ETS, New Mexico MPS 19177
2000 09 25.19104 20 43 32.87 -03 14 54.6 17.9   704 – Lincoln Laboratory ETS, New Mexico MPS 19177
2000 09 25.20570 20 43 33.31 -03 15 01.1 18.0   704 – Lincoln Laboratory ETS, New Mexico MPS 19177
2000 09 25.22040 20 43 33.74 -03 15 08.0 18.4   704 – Lincoln Laboratory ETS, New Mexico MPS 19177
2000 09 25.23508 20 43 34.19 -03 15 14.0 18.7   704 – Lincoln Laboratory ETS, New Mexico MPS 19177
2000 10 03.10415 20 49 10.06 -04 09 22.7 17.9   704 – Lincoln Laboratory ETS, New Mexico MPS 19177
2000 10 03.11889 20 49 10.73 -04 09 29.0 18.0   704 – Lincoln Laboratory ETS, New Mexico MPS 19177
2000 10 03.13355 20 49 11.50 -04 09 33.8 17.9   704 – Lincoln Laboratory ETS, New Mexico MPS 19177
2000 10 03.14921 20 49 12.24 -04 09 40.1 18.2   704 – Lincoln Laboratory ETS, New Mexico MPS 19177
2000 10 03.16385 20 49 12.94 -04 09 45.3 18.9   704 – Lincoln Laboratory ETS, New Mexico MPS 19177
2000 10 29.08835 21 22 29.71 -05 45 26.3 18.7   704 – Lincoln Laboratory ETS, New Mexico MPS 20943
2000 10 29.10222 21 22 31.01 -05 45 26.9 18.6   704 – Lincoln Laboratory ETS, New Mexico MPS 20943
2000 10 29.11773 21 22 32.56 -05 45 27.0 19.1   704 – Lincoln Laboratory ETS, New Mexico MPS 20943
2000 10 29.13166 21 22 33.95 -05 45 28.9 19.3   704 – Lincoln Laboratory ETS, New Mexico MPS 20943
2000 11 03.08537 21 30 59.11 -05 47 27.5 19.1   704 – Lincoln Laboratory ETS, New Mexico MPS 20943
2000 11 03.09911 21 31 00.55 -05 47 26.8 19.1   704 – Lincoln Laboratory ETS, New Mexico MPS 20943
2000 11 03.11285 21 31 01.95 -05 47 27.7 19.4   704 – Lincoln Laboratory ETS, New Mexico MPS 20943
2000 11 03.12657 21 31 03.42 -05 47 28.4 19.2   704 – Lincoln Laboratory ETS, New Mexico MPS 20943
2002 02 07.44725 10 08 01.27 -01 38 46.0 19.9   644 – Palomar Mountain/NEAT MPS 81393
2002 02 07.45990 10 08 00.57 -01 38 42.3 19.8   644 – Palomar Mountain/NEAT MPS 81393
2002 02 07.47387 10 07 59.77 -01 38 38.5 19.9   644 – Palomar Mountain/NEAT MPS 81393
2003 04 29.32019 14 40 35.88 -15 40 50.4 18.8   704 – Lincoln Laboratory ETS, New Mexico MPS 79702
2003 04 29.33238 14 40 35.24 -15 40 45.7 19.2   704 – Lincoln Laboratory ETS, New Mexico MPS 79702
2003 04 29.35626 14 40 33.76 -15 40 34.8 19.0   704 – Lincoln Laboratory ETS, New Mexico MPS 79702
2003 04 29.36824 14 40 33.12 -15 40 29.9 19.6   704 – Lincoln Laboratory ETS, New Mexico MPS 79702
2003 05 06.28361 14 33 55.79 -14 51 28.9 20.7 V 291 – LPL/Spacewatch II MPS 79702
2003 05 06.30984 14 33 54.25 -14 51 17.8 20.7 V 291 – LPL/Spacewatch II MPS 79702
2003 05 06.33362 14 33 52.83 -14 51 07.5 19.8 V 291 – LPL/Spacewatch II MPS 79702
2004 08 17.40678 03 22 09.41 +23 01 54.7 19.1   704 – Lincoln Laboratory ETS, New Mexico MPS 111772
2004 08 17.41716 03 22 10.65 +23 01 57.5 19.5   704 – Lincoln Laboratory ETS, New Mexico MPS 111772
2004 08 17.42750 03 22 11.91 +23 01 59.2 19.5   704 – Lincoln Laboratory ETS, New Mexico MPS 111772
2004 08 17.44929 03 22 14.48 +23 02 03.9 19.4   704 – Lincoln Laboratory ETS, New Mexico MPS 111772
2004 08 23.38763 03 33 55.59 +23 19 55.7 18.8 R 699 – Lowell Observatory-LONEOS MPS 112083
2004 08 23.42143 03 33 59.39 +23 20 01.7   699 – Lowell Observatory-LONEOS MPS 112083
2004 08 23.43846 03 34 01.33 +23 20 03.8   699 – Lowell Observatory-LONEOS MPS 112083
2004 08 23.45554 03 34 03.22 +23 20 06.3   699 – Lowell Observatory-LONEOS MPS 112083
2004 09 10.35513 04 04 44.25 +23 30 09.9 18.7   704 – Lincoln Laboratory ETS, New Mexico MPS 112585
2004 09 10.36742 04 04 45.28 +23 30 09.2 19.5   704 – Lincoln Laboratory ETS, New Mexico MPS 112585
2004 09 10.37938 04 04 46.32 +23 30 08.4 19.2   704 – Lincoln Laboratory ETS, New Mexico MPS 112585
2004 09 10.40238 04 04 48.38 +23 30 06.2 19.9   704 – Lincoln Laboratory ETS, New Mexico MPS 112585
2004 09 13.34764 04 09 02.45 +23 25 27.9 19.3   704 – Lincoln Laboratory ETS, New Mexico MPS 112585
2004 09 13.35906 04 09 03.25 +23 25 28.1 18.9   704 – Lincoln Laboratory ETS, New Mexico MPS 112585
2004 09 13.37047 04 09 04.18 +23 25 26.8 18.9   704 – Lincoln Laboratory ETS, New Mexico MPS 112585
2004 09 13.38187 04 09 05.10 +23 25 25.5 18.9   704 – Lincoln Laboratory ETS, New Mexico MPS 112585
2004 09 13.39331 04 09 06.01 +23 25 25.0 19.0   704 – Lincoln Laboratory ETS, New Mexico MPS 112585
2004 09 17.39020 04 14 23.60 +23 16 16.4 18.3   704 – Lincoln Laboratory ETS, New Mexico MPS 114115
2004 09 17.40204 04 14 24.71 +23 16 13.6 20.7   704 – Lincoln Laboratory ETS, New Mexico MPS 114115
2004 09 17.41391 04 14 25.31 +23 16 12.7 18.5   704 – Lincoln Laboratory ETS, New Mexico MPS 114115
2004 09 17.42575 04 14 26.21 +23 16 11.2 19.0   704 – Lincoln Laboratory ETS, New Mexico MPS 114115
